Miscellaneous Local Product
Issued by NWS Hastings, NE

Home | Current Version | Previous Version | Text Only | Print | Product List | Glossary Off
Versions: 1 2 3 4 5 6 7 8 9 10 11 12 13 14 15 16 17 18 19 20 21 22 23 24 25 26 27 28 29 30 31 32 33 34 35 36 37 38 39 40 41 42 43 44 45 46 47 48 49 50

569
AXUS43 KGID 220402
MISGRI

GID CWA HOURLY WEATHER ROUNDUP
NATIONAL WEATHER SERVICE HASTINGS NE
1000 PM CST SAT JAN 21 2017

NOTE: "FAIR" INDICATES FEW OR NO CLOUDS BELOW 12,000 FEET WITH NO
SIGNIFICANT WEATHER AND/OR OBSTRUCTIONS TO VISIBILITY.

...SOUTH CENTRAL NEBRASKA...

CITY           SKY/WX    TMP DP  RH WIND       PRES   REMARKS
GRAND ISLAND   CLEAR     32  32 100 CALM      29.56S FOG
HASTINGS       CLOUDY    32  31  96 N3        29.56R FOG
ORD            CLEAR     31  27  85 NW5       29.56R WCI  26
YORK           FOG       34  34 100 CALM      29.55S VSB 1/2
AURORA         FOG       32  32 100 CALM      29.55R VSB 1/2
LEXINGTON      CLEAR     30  28  91 NW3       29.57R
HOLDREGE       CLEAR     35  33  92 N3        29.55R
HEBRON         CLEAR     31  31 100 CALM      29.55R

...NEBRASKA PANHANDLE...

CITY           SKY/WX    TMP DP  RH WIND       PRES   REMARKS
CHADRON        PTCLDY    25  22  88 W5        29.63R WCI  19
ALLIANCE       CLEAR     24  20  84 NW6       29.60R WCI  17
SCOTTSBLUFF    CLEAR     29  25  85 N6        29.60R WCI  23
SIDNEY         CLOUDY    30  26  85 W5        29.60R WCI  25

...WESTERN AND NORTH CENTRAL NEBRASKA...

CITY           SKY/WX    TMP DP  RH WIND       PRES   REMARKS
VALENTINE      CLEAR     26  24  92 W8        29.60R WCI  18
AINSWORTH      CLEAR     28  27  98 W5        29.59R WCI  22
ONEILL         CLEAR     33  29  86 W5        29.58R WCI  28
BROKEN BOW     CLEAR     34  30  85 N10       29.57R WCI  26
IMPERIAL       CLOUDY    33  26  75 NW7       29.59R WCI  27
NORTH PLATTE   CLEAR     30  26  85 NW3       29.59R
MCCOOK         CLEAR     32  26  78 NW12      29.57R WCI  23

...EASTERN NEBRASKA...

CITY           SKY/WX    TMP DP  RH WIND       PRES   REMARKS
NORFOLK        CLEAR     28  26  92 W3        29.55R
SO SIOUX CITY  CLEAR     29  27  92 NW6       29.58R WCI  23
TEKAMAH        CLEAR     34  31  88 N12       29.57R WCI  25
COLUMBUS       CLEAR     32  28  86 CALM      29.56R
ALBION         CLEAR     31  27  83 NW5       29.57R WCI  27
OMAHA EPPLEY   CLEAR     34  29  82 CALM      29.55R
OFFUTT AFB     CLEAR     31  31 100 NW3       29.55R
MILLARD        CLEAR     34  33  96 CALM      29.55S
LINCOLN        CLEAR     30  29  96 CALM      29.57R
NEBRASKA CITY  CLEAR     41  35  80 CALM      29.55S
BEATRICE       CLOUDY    35  34  99 CALM      29.55R
FALLS CITY     PTCLDY    39  37  92 CALM      29.54R

...NORTHERN KANSAS...

CITY           SKY/WX    TMP DP  RH WIND       PRES   REMARKS
GOODLAND       CLOUDY    30  27  88 N7        29.57R WCI  23
HILL CITY      MOCLDY    38  35  89 N9        29.55R WCI  31
NORTON         CLEAR     34  28  80 N6        29.55  WCI  29
PHILLIPSBURG   CLEAR     34  32  93 NW6       29.56R WCI  29
SMITH CENTER   CLEAR     34  32  93 N5        29.55R WCI  30
HAYS           CLOUDY    43  37  79 NE12      29.51R
RUSSELL        CLOUDY    43  37  79 NE7       29.49R
CONCORDIA      CLOUDY    40  36  86 NE3       29.52R
SALINA         CLOUDY    46  41  82 NE7       29.49R
TOPEKA         LGT RAIN  46  43  89 SE7       29.52R



USA.gov is the U.S. government's official web portal to all federal, state and local government web resources and services.